Zurück zum Katalog

CARTOSAT 2B

AktivWissenschaftSSO
NORAD 36795·PAYLOAD·🇮🇳 India

Gestartet Jul 12, 2010 von Satish Dhawan Space Centre

Loading…

Nächste Überflüge (nächste 24 Stunden)

TLE

AktuellSource: Space-Track

Epoche: Sep 14, 2026, 14:19 UTC

1 36795U 10035A   26257.59717228  .00000525  00000-0  78862-4 0  9999
2 36795  97.9867 307.5336 0010026 262.7025  97.3046 14.78624847873062

Verfolge CARTOSAT 2B in Echtzeit mit AllMySat

Download on the App Store